Time,TemperatureF,DewpointF,PressureIn,WindDirection,WindDirectionDegrees,WindSpeedMPH,WindSpeedGustMPH,Humidity,HourlyPrecipIn,Conditions,Clouds,dailyrainin,SoftwareType,DateUTC
2013-11-07 00:00:00,57.1,56.0,30.14,WSW,247,4.7,7.0,95,0.00,,,0.00,Rainwise IP-100,2013-11-07 05:00:00,
2013-11-07 00:01:00,57.1,56.0,30.13,West,270,5.1,7.0,95,0.00,,,0.00,Rainwise IP-100,2013-11-07 05:01:00,
2013-11-07 00:06:00,57.0,56.0,30.13,WSW,247,4.0,7.0,95,0.00,,,0.00,Rainwise IP-100,2013-11-07 05:06:00,
2013-11-07 00:11:00,56.9,56.0,30.13,WSW,247,4.7,6.0,95,0.00,,,0.00,Rainwise IP-100,2013-11-07 05:11:00,
2013-11-07 00:17:00,56.8,55.0,30.13,WSW,247,3.0,6.0,95,0.00,,,0.00,Rainwise IP-100,2013-11-07 05:17:00,
2013-11-07 00:22:00,56.8,55.0,30.13,SSW,202,3.7,6.0,95,0.00,,,0.00,Rainwise IP-100,2013-11-07 05:22:00,
2013-11-07 00:27:00,56.8,55.0,30.13,WSW,247,2.6,4.0,95,0.00,,,0.00,Rainwise IP-100,2013-11-07 05:27:00,
2013-11-07 00:32:00,56.8,55.0,30.13,WNW,292,3.5,4.0,95,0.00,,,0.00,Rainwise IP-100,2013-11-07 05:32:00,
2013-11-07 00:37:00,56.7,55.0,30.12,SW,225,2.6,4.0,95,0.00,,,0.00,Rainwise IP-100,2013-11-07 05:37:00,
2013-11-07 00:42:00,56.6,55.0,30.12,SSW,202,4.2,4.2,95,0.00,,,0.00,Rainwise IP-100,2013-11-07 05:42:00,
2013-11-07 00:47:00,56.4,55.0,30.12,WSW,247,2.3,4.0,95,0.00,,,0.00,Rainwise IP-100,2013-11-07 05:47:00,
2013-11-07 00:53:00,56.4,55.0,30.12,West,270,1.6,6.0,95,0.00,,,0.00,Rainwise IP-100,2013-11-07 05:53:00,
2013-11-07 00:58:00,56.4,55.0,30.11,West,270,1.9,3.0,95,0.00,,,0.00,Rainwise IP-100,2013-11-07 05:58:00,
2013-11-07 01:03:00,56.4,55.0,30.11,SSW,202,1.6,4.0,95,0.00,,,0.00,Rainwise IP-100,2013-11-07 06:03:00,
2013-11-07 01:08:00,56.4,55.0,30.10,WSW,247,3.0,4.0,95,0.00,,,0.00,Rainwise IP-100,2013-11-07 06:08:00,
2013-11-07 01:13:00,56.4,55.0,30.10,SSE,157,2.1,3.0,95,0.00,,,0.00,Rainwise IP-100,2013-11-07 06:13:00,
2013-11-07 01:18:00,56.4,55.0,30.10,SSW,202,4.0,4.0,95,0.00,,,0.00,Rainwise IP-100,2013-11-07 06:18:00,
2013-11-07 01:23:00,56.4,55.0,30.09,WNW,292,2.1,4.0,95,0.00,,,0.00,Rainwise IP-100,2013-11-07 06:23:00,
2013-11-07 01:28:00,56.5,55.0,30.09,WSW,247,1.4,3.0,95,0.00,,,0.00,Rainwise IP-100,2013-11-07 06:28:00,
2013-11-07 01:34:00,56.5,55.0,30.09,WNW,292,0.0,4.0,95,0.00,,,0.00,Rainwise IP-100,2013-11-07 06:34:00,
2013-11-07 01:39:00,56.6,55.0,30.09,South,180,1.6,4.0,95,0.00,,,0.00,Rainwise IP-100,2013-11-07 06:39:00,
2013-11-07 01:44:00,56.6,55.0,30.09,SSW,202,0.0,3.0,95,0.00,,,0.00,Rainwise IP-100,2013-11-07 06:44:00,
2013-11-07 01:49:00,56.7,55.0,30.08,WSW,247,3.3,7.0,95,0.00,,,0.00,Rainwise IP-100,2013-11-07 06:49:00,
2013-11-07 01:54:00,56.8,54.0,30.08,SSW,202,2.1,3.0,94,0.00,,,0.00,Rainwise IP-100,2013-11-07 06:54:00,
2013-11-07 01:59:00,56.8,54.0,30.08,SSW,202,1.9,3.0,94,0.00,,,0.00,Rainwise IP-100,2013-11-07 06:59:00,
2013-11-07 02:04:00,56.9,55.0,30.08,SSW,202,2.1,4.0,94,0.00,,,0.00,Rainwise IP-100,2013-11-07 07:04:00,
2013-11-07 02:10:00,57.0,55.0,30.08,SSW,202,4.4,5.0,94,0.00,,,0.00,Rainwise IP-100,2013-11-07 07:10:00,
2013-11-07 02:15:00,57.1,55.0,30.07,South,180,4.9,7.0,94,0.00,,,0.00,Rainwise IP-100,2013-11-07 07:15:00,
2013-11-07 02:20:00,57.1,55.0,30.07,South,180,6.1,6.1,94,0.00,,,0.00,Rainwise IP-100,2013-11-07 07:20:00,
2013-11-07 02:25:00,57.2,55.0,30.07,SSE,157,6.5,9.0,94,0.00,,,0.00,Rainwise IP-100,2013-11-07 07:25:00,
2013-11-07 02:30:00,57.3,55.0,30.06,SSW,202,5.4,8.0,93,0.00,,,0.00,Rainwise IP-100,2013-11-07 07:30:00,
2013-11-07 02:35:00,57.3,55.0,30.06,SSW,202,4.2,7.0,93,0.00,,,0.00,Rainwise IP-100,2013-11-07 07:35:00,
2013-11-07 02:40:00,57.3,55.0,30.05,West,270,3.3,7.0,93,0.00,,,0.00,Rainwise IP-100,2013-11-07 07:40:00,
2013-11-07 02:45:00,57.3,55.0,30.05,WSW,247,3.7,4.0,93,0.00,,,0.00,Rainwise IP-100,2013-11-07 07:45:00,
2013-11-07 02:51:00,57.2,55.0,30.05,West,270,3.0,6.0,93,0.00,,,0.00,Rainwise IP-100,2013-11-07 07:51:00,
2013-11-07 02:56:00,57.3,55.0,30.04,WSW,247,0.0,4.0,93,0.00,,,0.00,Rainwise IP-100,2013-11-07 07:56:00,
2013-11-07 03:01:00,57.2,55.0,30.04,SW,225,0.0,4.0,93,0.00,,,0.00,Rainwise IP-100,2013-11-07 08:01:00,
2013-11-07 03:06:00,57.2,55.0,30.03,SSW,202,3.7,6.0,93,0.00,,,0.00,Rainwise IP-100,2013-11-07 08:06:00,
2013-11-07 03:11:00,57.3,55.0,30.04,SSW,202,5.8,5.8,93,0.00,,,0.00,Rainwise IP-100,2013-11-07 08:11:00,
2013-11-07 03:16:00,57.3,55.0,30.03,South,180,5.1,8.0,93,0.00,,,0.00,Rainwise IP-100,2013-11-07 08:16:00,
2013-11-07 03:21:00,57.5,56.0,30.03,SSW,202,5.6,7.0,93,0.00,,,0.00,Rainwise IP-100,2013-11-07 08:21:00,
2013-11-07 03:27:00,57.6,56.0,30.02,South,180,7.0,8.0,93,0.00,,,0.00,Rainwise IP-100,2013-11-07 08:27:00,
2013-11-07 03:32:00,57.7,56.0,30.02,SSW,202,3.5,9.0,93,0.00,,,0.00,Rainwise IP-100,2013-11-07 08:32:00,
2013-11-07 03:37:00,57.9,56.0,30.02,SSW,202,8.2,8.2,93,0.00,,,0.00,Rainwise IP-100,2013-11-07 08:37:00,
2013-11-07 03:42:00,58.0,56.0,30.02,South,180,4.4,9.0,93,0.00,,,0.00,Rainwise IP-100,2013-11-07 08:42:00,
2013-11-07 03:47:00,58.1,56.0,30.02,South,180,4.9,10.0,93,0.00,,,0.00,Rainwise IP-100,2013-11-07 08:47:00,
2013-11-07 03:52:00,58.1,56.0,30.02,South,180,4.2,9.0,93,0.00,,,0.00,Rainwise IP-100,2013-11-07 08:52:00,
2013-11-07 03:57:00,58.1,56.0,30.02,SSW,202,6.5,8.0,93,0.00,,,0.00,Rainwise IP-100,2013-11-07 08:57:00,
2013-11-07 04:02:00,58.1,56.0,30.01,South,180,5.6,10.0,93,0.00,,,0.00,Rainwise IP-100,2013-11-07 09:02:00,
2013-11-07 04:08:00,58.0,56.0,30.01,South,180,4.9,9.0,93,0.00,,,0.00,Rainwise IP-100,2013-11-07 09:08:00,
2013-11-07 04:13:00,57.9,56.0,30.01,SSW,202,7.5,8.0,94,0.00,,,0.00,Rainwise IP-100,2013-11-07 09:13:00,
2013-11-07 04:18:00,57.9,56.0,30.00,SSW,202,7.5,11.0,94,0.00,,,0.00,Rainwise IP-100,2013-11-07 09:18:00,
2013-11-07 04:23:00,58.0,57.0,30.00,South,180,5.4,11.0,95,0.00,,,0.00,Rainwise IP-100,2013-11-07 09:23:00,
2013-11-07 04:28:00,58.0,57.0,30.00,South,180,7.2,11.0,95,0.00,,,0.00,Rainwise IP-100,2013-11-07 09:28:00,
2013-11-07 04:33:00,58.0,57.0,29.99,South,180,9.8,12.0,96,0.00,,,0.00,Rainwise IP-100,2013-11-07 09:33:00,
2013-11-07 04:38:00,58.0,57.0,29.99,SSW,202,6.5,12.0,96,0.00,,,0.00,Rainwise IP-100,2013-11-07 09:38:00,
2013-11-07 04:44:00,58.0,57.0,29.98,SSW,202,7.7,10.0,96,0.00,,,0.00,Rainwise IP-100,2013-11-07 09:44:00,
2013-11-07 04:49:00,58.0,57.0,29.98,South,180,6.8,8.0,96,0.00,,,0.00,Rainwise IP-100,2013-11-07 09:49:00,
2013-11-07 04:54:00,58.0,57.0,29.98,South,180,1.2,8.0,97,0.00,,,0.00,Rainwise IP-100,2013-11-07 09:54:00,
2013-11-07 04:59:00,58.1,57.0,29.98,SW,225,6.8,8.0,97,0.00,,,0.00,Rainwise IP-100,2013-11-07 09:59:00,
2013-11-07 05:04:00,58.0,57.0,29.98,SSW,202,8.4,8.4,97,0.00,,,0.00,Rainwise IP-100,2013-11-07 10:04:00,
2013-11-07 05:09:00,58.0,57.0,29.98,SSW,202,5.6,8.0,97,0.00,,,0.00,Rainwise IP-100,2013-11-07 10:09:00,
2013-11-07 05:14:00,58.0,57.0,29.97,SSW,202,5.4,7.0,97,0.00,,,0.00,Rainwise IP-100,2013-11-07 10:14:00,
2013-11-07 05:19:00,58.0,57.0,29.97,SSW,202,5.8,8.0,97,0.00,,,0.00,Rainwise IP-100,2013-11-07 10:19:00,
2013-11-07 05:25:00,58.1,57.0,29.96,SSW,202,5.6,7.0,97,0.00,,,0.00,Rainwise IP-100,2013-11-07 10:25:00,
2013-11-07 05:30:00,58.1,57.0,29.96,SSW,202,2.6,6.0,97,0.00,,,0.00,Rainwise IP-100,2013-11-07 10:30:00,
2013-11-07 05:35:00,58.2,57.0,29.96,SSW,202,2.8,4.0,98,0.00,,,0.00,Rainwise IP-100,2013-11-07 10:35:00,
2013-11-07 05:40:00,58.2,57.0,29.96,SSW,202,4.0,7.0,98,0.00,,,0.00,Rainwise IP-100,2013-11-07 10:40:00,
2013-11-07 05:45:00,58.2,57.0,29.96,SW,225,1.2,7.0,98,0.00,,,0.00,Rainwise IP-100,2013-11-07 10:45:00,
2013-11-07 05:50:00,58.4,57.0,29.95,SSW,202,4.9,5.0,98,0.00,,,0.00,Rainwise IP-100,2013-11-07 10:50:00,
2013-11-07 05:55:00,58.4,57.0,29.95,South,180,5.8,7.0,98,0.00,,,0.00,Rainwise IP-100,2013-11-07 10:55:00,
2013-11-07 06:00:00,58.5,58.0,29.94,South,180,6.5,9.0,98,0.00,,,0.00,Rainwise IP-100,2013-11-07 11:00:00,
2013-11-07 06:06:00,58.6,58.0,29.94,SSW,202,4.9,8.0,98,0.00,,,0.00,Rainwise IP-100,2013-11-07 11:06:00,
2013-11-07 06:11:00,58.7,58.0,29.93,SSW,202,7.7,7.7,98,0.00,,,0.00,Rainwise IP-100,2013-11-07 11:11:00,
2013-11-07 06:16:00,58.8,58.0,29.93,SSW,202,3.3,7.0,98,0.00,,,0.00,Rainwise IP-100,2013-11-07 11:16:00,
2013-11-07 06:21:00,58.9,58.0,29.93,SSW,202,2.6,7.0,98,0.00,,,0.00,Rainwise IP-100,2013-11-07 11:21:00,
2013-11-07 06:26:00,58.9,58.0,29.94,SW,225,4.0,6.0,97,0.00,,,0.00,Rainwise IP-100,2013-11-07 11:26:00,
2013-11-07 06:31:00,58.9,58.0,29.93,SSW,202,4.2,5.0,97,0.00,,,0.00,Rainwise IP-100,2013-11-07 11:31:00,
2013-11-07 06:36:00,59.0,58.0,29.93,SSW,202,4.7,6.0,97,0.00,,,0.00,Rainwise IP-100,2013-11-07 11:36:00,
2013-11-07 06:41:00,59.1,58.0,29.92,SSE,157,6.5,6.5,97,0.00,,,0.00,Rainwise IP-100,2013-11-07 11:41:00,
2013-11-07 06:47:00,59.1,58.0,29.93,South,180,3.3,7.0,97,0.00,,,0.00,Rainwise IP-100,2013-11-07 11:47:00,
2013-11-07 06:52:00,59.2,58.0,29.93,South,180,2.8,4.0,97,0.00,,,0.00,Rainwise IP-100,2013-11-07 11:52:00,
2013-11-07 06:57:00,59.4,58.0,29.93,West,270,3.3,4.0,97,0.00,,,0.00,Rainwise IP-100,2013-11-07 11:57:00,
2013-11-07 07:02:00,59.6,58.0,29.93,WSW,247,0.0,4.0,97,0.00,,,0.00,Rainwise IP-100,2013-11-07 12:02:00,
2013-11-07 07:07:00,59.7,58.0,29.93,South,180,4.7,4.7,97,0.00,,,0.00,Rainwise IP-100,2013-11-07 12:07:00,
2013-11-07 07:12:00,59.7,58.0,29.93,SSE,157,1.2,5.0,97,0.00,,,0.00,Rainwise IP-100,2013-11-07 12:12:00,
2013-11-07 07:17:00,59.9,59.0,29.93,SSW,202,4.7,6.0,97,0.00,,,0.00,Rainwise IP-100,2013-11-07 12:17:00,
2013-11-07 07:23:00,60.0,59.0,29.93,WSW,247,3.0,7.0,96,0.00,,,0.00,Rainwise IP-100,2013-11-07 12:23:00,
2013-11-07 07:28:00,60.2,59.0,29.93,SSW,202,2.8,6.0,96,0.00,,,0.00,Rainwise IP-100,2013-11-07 12:28:00,
2013-11-07 07:33:00,60.4,59.0,29.93,South,180,7.7,8.0,95,0.00,,,0.00,Rainwise IP-100,2013-11-07 12:33:00,
2013-11-07 07:38:00,60.6,59.0,29.93,SSE,157,4.9,10.0,95,0.00,,,0.00,Rainwise IP-100,2013-11-07 12:38:00,
2013-11-07 07:43:00,60.7,59.0,29.92,SSW,202,5.8,6.0,95,0.00,,,0.00,Rainwise IP-100,2013-11-07 12:43:00,
2013-11-07 07:48:00,60.8,59.0,29.92,SSW,202,5.1,9.0,94,0.00,,,0.00,Rainwise IP-100,2013-11-07 12:48:00,
2013-11-07 07:53:00,61.0,59.0,29.91,SW,225,4.2,12.0,93,0.00,,,0.00,Rainwise IP-100,2013-11-07 12:53:00,
2013-11-07 07:58:00,61.4,59.0,29.91,South,180,4.0,8.0,93,0.00,,,0.00,Rainwise IP-100,2013-11-07 12:58:00,
2013-11-07 08:04:00,61.7,59.0,29.91,South,180,6.8,14.0,92,0.00,,,0.00,Rainwise IP-100,2013-11-07 13:04:00,
2013-11-07 08:09:00,61.9,59.0,29.91,SSW,202,4.9,10.0,91,0.00,,,0.00,Rainwise IP-100,2013-11-07 13:09:00,
2013-11-07 08:14:00,62.1,59.0,29.91,SW,225,4.4,8.0,90,0.00,,,0.00,Rainwise IP-100,2013-11-07 13:14:00,
2013-11-07 08:19:00,62.3,59.0,29.91,SW,225,4.9,11.0,90,0.00,,,0.00,Rainwise IP-100,2013-11-07 13:19:00,
2013-11-07 08:24:00,62.5,59.0,29.92,South,180,7.5,9.0,89,0.00,,,0.00,Rainwise IP-100,2013-11-07 13:24:00,
2013-11-07 08:29:00,62.5,59.0,29.92,SW,225,7.2,10.0,89,0.00,,,0.00,Rainwise IP-100,2013-11-07 13:29:00,
2013-11-07 08:34:00,62.5,59.0,29.92,SSW,202,4.2,9.0,89,0.00,,,0.00,Rainwise IP-100,2013-11-07 13:34:00,
2013-11-07 08:40:00,62.5,59.0,29.93,SW,225,3.5,13.0,89,0.00,,,0.00,Rainwise IP-100,2013-11-07 13:40:00,
2013-11-07 08:45:00,62.5,59.0,29.93,SW,225,6.1,9.0,89,0.00,,,0.00,Rainwise IP-100,2013-11-07 13:45:00,
2013-11-07 08:50:00,62.5,59.0,29.93,WSW,247,3.0,11.0,88,0.00,,,0.00,Rainwise IP-100,2013-11-07 13:50:00,
2013-11-07 08:55:00,62.6,59.0,29.92,WSW,247,9.1,16.0,87,0.00,,,0.00,Rainwise IP-100,2013-11-07 13:55:00,
2013-11-07 09:00:00,62.8,59.0,29.93,WSW,247,11.0,18.0,87,0.00,,,0.00,Rainwise IP-100,2013-11-07 14:00:00,
2013-11-07 09:05:00,63.1,59.0,29.92,SSW,202,10.3,21.0,86,0.00,,,0.00,Rainwise IP-100,2013-11-07 14:05:00,
2013-11-07 09:10:00,63.2,58.0,29.92,WSW,247,5.1,14.0,85,0.00,,,0.00,Rainwise IP-100,2013-11-07 14:10:00,
2013-11-07 09:15:00,63.2,58.0,29.91,WSW,247,14.0,16.0,85,0.00,,,0.00,Rainwise IP-100,2013-11-07 14:15:00,
2013-11-07 09:21:00,63.3,58.0,29.90,WNW,292,5.6,17.0,84,0.00,,,0.00,Rainwise IP-100,2013-11-07 14:21:00,
2013-11-07 09:26:00,63.4,58.0,29.90,SSW,202,5.6,15.0,83,0.00,,,0.00,Rainwise IP-100,2013-11-07 14:26:00,
2013-11-07 09:31:00,63.4,58.0,29.90,South,180,5.1,15.0,83,0.00,,,0.00,Rainwise IP-100,2013-11-07 14:31:00,
2013-11-07 09:36:00,63.5,57.0,29.90,SSW,202,7.5,12.0,82,0.00,,,0.00,Rainwise IP-100,2013-11-07 14:36:00,
2013-11-07 09:41:00,63.5,57.0,29.90,WSW,247,10.3,11.0,82,0.00,,,0.00,Rainwise IP-100,2013-11-07 14:41:00,
2013-11-07 09:46:00,63.4,57.0,29.89,WSW,247,6.3,18.0,82,0.00,,,0.00,Rainwise IP-100,2013-11-07 14:46:00,
2013-11-07 09:51:00,63.4,57.0,29.89,WSW,247,8.4,11.0,82,0.00,,,0.00,Rainwise IP-100,2013-11-07 14:51:00,
2013-11-07 09:57:00,63.3,57.0,29.89,West,270,9.8,12.0,82,0.00,,,0.00,Rainwise IP-100,2013-11-07 14:57:00,
2013-11-07 10:02:00,63.3,57.0,29.88,SSW,202,11.4,13.0,81,0.00,,,0.00,Rainwise IP-100,2013-11-07 15:02:00,
2013-11-07 10:07:00,63.2,57.0,29.89,WSW,247,6.5,21.0,81,0.00,,,0.00,Rainwise IP-100,2013-11-07 15:07:00,
2013-11-07 10:12:00,63.1,57.0,29.89,SW,225,10.5,13.0,81,0.00,,,0.00,Rainwise IP-100,2013-11-07 15:12:00,
2013-11-07 10:17:00,63.1,57.0,29.89,WSW,247,10.5,20.0,81,0.00,,,0.00,Rainwise IP-100,2013-11-07 15:17:00,
2013-11-07 10:22:00,63.1,57.0,29.88,WNW,292,3.0,15.0,81,0.00,,,0.00,Rainwise IP-100,2013-11-07 15:22:00,
2013-11-07 10:27:00,63.0,57.0,29.88,West,270,8.9,12.0,81,0.00,,,0.00,Rainwise IP-100,2013-11-07 15:27:00,
2013-11-07 10:32:00,62.9,57.0,29.88,WSW,247,10.7,19.0,82,0.00,,,0.00,Rainwise IP-100,2013-11-07 15:32:00,
2013-11-07 10:38:00,62.8,57.0,29.88,WNW,292,4.2,16.0,82,0.00,,,0.00,Rainwise IP-100,2013-11-07 15:38:00,
2013-11-07 10:43:00,62.6,57.0,29.88,West,270,10.5,13.0,82,0.00,,,0.00,Rainwise IP-100,2013-11-07 15:43:00,
2013-11-07 10:48:00,62.3,56.0,29.88,WNW,292,11.7,13.0,82,0.00,,,0.00,Rainwise IP-100,2013-11-07 15:48:00,
2013-11-07 10:53:00,62.1,56.0,29.87,West,270,7.5,17.0,83,0.00,,,0.00,Rainwise IP-100,2013-11-07 15:53:00,
2013-11-07 10:58:00,61.9,56.0,29.87,WSW,247,8.6,17.0,83,0.00,,,0.00,Rainwise IP-100,2013-11-07 15:58:00,
2013-11-07 11:03:00,61.7,56.0,29.87,SSW,202,0.0,14.0,84,0.00,,,0.00,Rainwise IP-100,2013-11-07 16:03:00,
2013-11-07 11:08:00,61.6,56.0,29.86,WSW,247,10.0,14.0,84,0.00,,,0.00,Rainwise IP-100,2013-11-07 16:08:00,
2013-11-07 11:14:00,61.2,56.0,29.86,WSW,247,14.0,18.0,85,0.00,,,0.00,Rainwise IP-100,2013-11-07 16:14:00,
2013-11-07 11:19:00,60.7,56.0,29.88,WSW,247,7.9,16.0,86,0.06,,,0.01,Rainwise IP-100,2013-11-07 16:19:00,
2013-11-07 11:24:00,60.4,56.0,29.86,West,270,3.5,9.0,87,0.06,,,0.01,Rainwise IP-100,2013-11-07 16:24:00,
2013-11-07 11:29:00,60.2,56.0,29.85,West,270,6.8,8.0,88,0.00,,,0.01,Rainwise IP-100,2013-11-07 16:29:00,
2013-11-07 11:34:00,60.0,56.0,29.85,SW,225,10.0,12.0,89,0.06,,,0.02,Rainwise IP-100,2013-11-07 16:34:00,
2013-11-07 11:39:00,59.9,57.0,29.85,WNW,292,9.1,11.0,90,0.06,,,0.02,Rainwise IP-100,2013-11-07 16:39:00,
2013-11-07 11:44:00,59.7,56.0,29.85,WSW,247,4.9,12.0,90,0.00,,,0.02,Rainwise IP-100,2013-11-07 16:44:00,
2013-11-07 11:49:00,59.7,56.0,29.85,West,270,4.2,10.0,91,0.00,,,0.02,Rainwise IP-100,2013-11-07 16:49:00,
2013-11-07 11:55:00,59.7,57.0,29.84,WSW,247,3.5,7.0,92,0.06,,,0.03,Rainwise IP-100,2013-11-07 16:55:00,
2013-11-07 12:00:00,59.6,57.0,29.83,WSW,247,3.5,10.0,92,0.06,,,0.03,Rainwise IP-100,2013-11-07 17:00:00,
2013-11-07 12:05:00,59.5,57.0,29.83,WNW,292,7.5,11.0,93,0.06,,,0.04,Rainwise IP-100,2013-11-07 17:05:00,
2013-11-07 12:10:00,59.3,57.0,29.82,WNW,292,6.8,7.0,93,0.12,,,0.05,Rainwise IP-100,2013-11-07 17:10:00,
2013-11-07 12:15:00,59.2,57.0,29.83,WSW,247,6.1,8.0,93,0.12,,,0.06,Rainwise IP-100,2013-11-07 17:15:00,
2013-11-07 12:20:00,59.1,57.0,29.82,WNW,292,3.0,7.0,94,0.12,,,0.07,Rainwise IP-100,2013-11-07 17:20:00,
2013-11-07 12:25:00,59.0,57.0,29.81,West,270,3.5,5.0,94,0.06,,,0.07,Rainwise IP-100,2013-11-07 17:25:00,
2013-11-07 12:31:00,59.0,57.0,29.80,West,270,2.3,4.0,94,0.00,,,0.07,Rainwise IP-100,2013-11-07 17:31:00,
2013-11-07 12:36:00,59.0,57.0,29.81,SW,225,4.4,6.0,95,0.00,,,0.07,Rainwise IP-100,2013-11-07 17:36:00,
2013-11-07 12:41:00,59.0,57.0,29.81,SSW,202,4.4,6.0,95,0.00,,,0.07,Rainwise IP-100,2013-11-07 17:41:00,
2013-11-07 12:46:00,59.0,57.0,29.81,SSW,202,0.0,6.0,95,0.00,,,0.07,Rainwise IP-100,2013-11-07 17:46:00,
2013-11-07 12:51:00,59.0,57.0,29.81,WSW,247,6.5,6.5,95,0.00,,,0.07,Rainwise IP-100,2013-11-07 17:51:00,
2013-11-07 12:56:00,59.1,57.0,29.81,NW,315,4.2,7.0,95,0.06,,,0.08,Rainwise IP-100,2013-11-07 17:56:00,
2013-11-07 13:01:00,59.2,57.0,29.81,WSW,247,5.8,5.8,96,0.06,,,0.08,Rainwise IP-100,2013-11-07 18:01:00,
2013-11-07 13:06:00,59.2,57.0,29.82,West,270,4.7,7.0,95,0.00,,,0.08,Rainwise IP-100,2013-11-07 18:06:00,
2013-11-07 13:12:00,59.3,57.0,29.82,West,270,1.9,7.0,95,0.00,,,0.08,Rainwise IP-100,2013-11-07 18:12:00,
2013-11-07 13:17:00,59.3,57.0,29.81,WSW,247,3.7,6.0,95,0.00,,,0.08,Rainwise IP-100,2013-11-07 18:17:00,
2013-11-07 13:22:00,59.3,57.0,29.81,West,270,4.9,7.0,95,0.00,,,0.08,Rainwise IP-100,2013-11-07 18:22:00,
2013-11-07 13:27:00,59.4,57.0,29.82,SW,225,3.3,7.0,95,0.00,,,0.08,Rainwise IP-100,2013-11-07 18:27:00,
2013-11-07 13:32:00,59.4,57.0,29.82,WSW,247,4.9,4.9,95,0.00,,,0.08,Rainwise IP-100,2013-11-07 18:32:00,
2013-11-07 13:37:00,59.3,57.0,29.81,West,270,4.9,6.0,95,0.00,,,0.08,Rainwise IP-100,2013-11-07 18:37:00,
2013-11-07 13:42:00,59.3,57.0,29.82,WSW,247,2.3,6.0,95,0.00,,,0.08,Rainwise IP-100,2013-11-07 18:42:00,
2013-11-07 13:48:00,59.4,57.0,29.83,WNW,292,5.1,7.0,95,0.00,,,0.08,Rainwise IP-100,2013-11-07 18:48:00,
2013-11-07 13:53:00,59.4,57.0,29.83,WNW,292,7.7,9.0,95,0.00,,,0.08,Rainwise IP-100,2013-11-07 18:53:00,
2013-11-07 13:58:00,59.2,57.0,29.82,WNW,292,19.4,27.0,94,0.06,,,0.09,Rainwise IP-100,2013-11-07 18:58:00,
2013-11-07 14:03:00,58.1,56.0,29.84,NW,315,17.7,28.0,93,0.18,,,0.11,Rainwise IP-100,2013-11-07 19:03:00,
2013-11-07 14:08:00,56.6,54.0,29.83,NNW,337,18.7,21.0,92,0.12,,,0.12,Rainwise IP-100,2013-11-07 19:08:00,
2013-11-07 14:13:00,55.9,53.0,29.84,NNW,337,13.5,21.0,92,0.06,,,0.12,Rainwise IP-100,2013-11-07 19:13:00,
2013-11-07 14:18:00,55.4,53.0,29.83,NNW,337,8.9,17.0,92,0.12,,,0.13,Rainwise IP-100,2013-11-07 19:18:00,
2013-11-07 14:23:00,55.1,53.0,29.84,NW,315,7.2,14.0,92,0.06,,,0.13,Rainwise IP-100,2013-11-07 19:23:00,
2013-11-07 14:29:00,55.0,53.0,29.83,NNW,337,12.8,12.8,92,0.00,,,0.13,Rainwise IP-100,2013-11-07 19:29:00,
2013-11-07 14:34:00,54.9,53.0,29.84,NW,315,10.7,15.0,91,0.00,,,0.13,Rainwise IP-100,2013-11-07 19:34:00,
2013-11-07 14:39:00,54.8,52.0,29.83,NNW,337,9.6,13.0,91,0.00,,,0.13,Rainwise IP-100,2013-11-07 19:39:00,
2013-11-07 14:44:00,54.8,52.0,29.83,WNW,292,6.3,9.0,91,0.00,,,0.13,Rainwise IP-100,2013-11-07 19:44:00,
2013-11-07 14:49:00,54.6,52.0,29.83,NNW,337,7.9,11.0,91,0.00,,,0.13,Rainwise IP-100,2013-11-07 19:49:00,
2013-11-07 14:54:00,54.5,52.0,29.83,WNW,292,6.1,10.0,91,0.00,,,0.13,Rainwise IP-100,2013-11-07 19:54:00,
2013-11-07 14:59:00,54.5,52.0,29.83,NW,315,9.3,13.0,91,0.00,,,0.13,Rainwise IP-100,2013-11-07 19:59:00,
2013-11-07 15:05:00,54.4,53.0,29.84,NW,315,7.5,14.0,92,0.06,,,0.14,Rainwise IP-100,2013-11-07 20:05:00,
2013-11-07 15:10:00,54.4,53.0,29.83,NW,315,14.0,14.0,92,0.06,,,0.14,Rainwise IP-100,2013-11-07 20:10:00,
2013-11-07 15:15:00,54.0,51.0,29.82,NW,315,15.2,21.0,90,0.00,,,0.14,Rainwise IP-100,2013-11-07 20:15:00,
2013-11-07 15:20:00,53.5,50.0,29.83,NW,315,15.9,27.0,88,0.00,,,0.14,Rainwise IP-100,2013-11-07 20:20:00,
2013-11-07 15:25:00,52.9,48.0,29.83,WNW,292,11.0,19.0,86,0.00,,,0.14,Rainwise IP-100,2013-11-07 20:25:00,
2013-11-07 15:30:00,52.5,48.0,29.83,NW,315,11.7,16.0,85,0.00,,,0.14,Rainwise IP-100,2013-11-07 20:30:00,
2013-11-07 15:35:00,52.1,47.0,29.83,WNW,292,17.0,17.0,85,0.00,,,0.14,Rainwise IP-100,2013-11-07 20:35:00,
2013-11-07 15:40:00,51.8,47.0,29.83,NW,315,14.7,19.0,85,0.00,,,0.14,Rainwise IP-100,2013-11-07 20:40:00,
2013-11-07 15:46:00,51.6,47.0,29.83,NW,315,14.0,18.0,85,0.00,,,0.14,Rainwise IP-100,2013-11-07 20:46:00,
2013-11-07 15:51:00,51.4,47.0,29.83,WNW,292,11.4,20.0,86,0.00,,,0.14,Rainwise IP-100,2013-11-07 20:51:00,
2013-11-07 15:56:00,51.3,47.0,29.84,NW,315,11.2,18.0,86,0.00,,,0.14,Rainwise IP-100,2013-11-07 20:56:00,
2013-11-07 16:01:00,51.2,47.0,29.84,WNW,292,13.3,19.0,87,0.00,,,0.14,Rainwise IP-100,2013-11-07 21:01:00,
2013-11-07 16:06:00,51.1,47.0,29.85,WNW,292,12.1,19.0,87,0.00,,,0.14,Rainwise IP-100,2013-11-07 21:06:00,
2013-11-07 16:11:00,51.1,47.0,29.85,WNW,292,16.3,16.3,87,0.00,,,0.14,Rainwise IP-100,2013-11-07 21:11:00,
2013-11-07 16:16:00,50.9,47.0,29.86,NW,315,6.3,18.0,87,0.00,,,0.14,Rainwise IP-100,2013-11-07 21:16:00,
2013-11-07 16:22:00,50.8,47.0,29.85,NW,315,16.3,18.0,87,0.00,,,0.14,Rainwise IP-100,2013-11-07 21:22:00,
2013-11-07 16:27:00,50.8,47.0,29.86,WNW,292,9.6,16.0,87,0.00,,,0.14,Rainwise IP-100,2013-11-07 21:27:00,
2013-11-07 16:32:00,50.7,47.0,29.87,WNW,292,9.8,14.0,87,0.00,,,0.14,Rainwise IP-100,2013-11-07 21:32:00,
2013-11-07 16:37:00,50.6,47.0,29.87,WNW,292,15.9,17.0,86,0.00,,,0.14,Rainwise IP-100,2013-11-07 21:37:00,
2013-11-07 16:42:00,50.4,47.0,29.87,WNW,292,16.1,21.0,86,0.00,,,0.14,Rainwise IP-100,2013-11-07 21:42:00,
2013-11-07 16:47:00,50.4,46.0,29.88,NW,315,16.6,19.0,85,0.00,,,0.14,Rainwise IP-100,2013-11-07 21:47:00,
2013-11-07 16:52:00,50.3,45.0,29.87,NW,315,11.2,22.0,84,0.00,,,0.14,Rainwise IP-100,2013-11-07 21:52:00,
2013-11-07 16:57:00,50.2,45.0,29.88,WNW,292,14.9,23.0,83,0.00,,,0.14,Rainwise IP-100,2013-11-07 21:57:00,
2013-11-07 17:03:00,50.1,45.0,29.88,WNW,292,16.6,21.0,82,0.00,,,0.14,Rainwise IP-100,2013-11-07 22:03:00,
2013-11-07 17:08:00,50.0,45.0,29.88,WNW,292,11.0,18.0,82,0.00,,,0.14,Rainwise IP-100,2013-11-07 22:08:00,
2013-11-07 17:13:00,50.0,44.0,29.89,NW,315,11.7,20.0,81,0.00,,,0.14,Rainwise IP-100,2013-11-07 22:13:00,
2013-11-07 17:18:00,49.9,44.0,29.90,WNW,292,12.4,19.0,81,0.00,,,0.14,Rainwise IP-100,2013-11-07 22:18:00,
2013-11-07 17:23:00,49.9,44.0,29.90,NNW,337,10.7,19.0,80,0.00,,,0.14,Rainwise IP-100,2013-11-07 22:23:00,
2013-11-07 17:28:00,49.9,44.0,29.89,NW,315,12.4,17.0,80,0.00,,,0.14,Rainwise IP-100,2013-11-07 22:28:00,
2013-11-07 17:33:00,49.9,43.0,29.90,NW,315,14.2,18.0,79,0.00,,,0.14,Rainwise IP-100,2013-11-07 22:33:00,
2013-11-07 17:39:00,49.9,43.0,29.90,WNW,292,11.7,19.0,78,0.00,,,0.14,Rainwise IP-100,2013-11-07 22:39:00,
2013-11-07 17:44:00,49.9,43.0,29.90,NW,315,8.9,15.0,78,0.00,,,0.14,Rainwise IP-100,2013-11-07 22:44:00,
2013-11-07 17:49:00,49.8,43.0,29.91,NW,315,13.8,15.0,77,0.00,,,0.14,Rainwise IP-100,2013-11-07 22:49:00,
2013-11-07 17:54:00,49.8,43.0,29.91,NNW,337,13.1,15.0,77,0.00,,,0.14,Rainwise IP-100,2013-11-07 22:54:00,
2013-11-07 17:59:00,49.8,42.0,29.91,NW,315,12.6,16.0,76,0.00,,,0.14,Rainwise IP-100,2013-11-07 22:59:00,
2013-11-07 18:04:00,49.7,42.0,29.91,NW,315,10.7,13.0,76,0.00,,,0.14,Rainwise IP-100,2013-11-07 23:04:00,
2013-11-07 18:09:00,49.5,42.0,29.91,NW,315,14.5,21.0,75,0.00,,,0.14,Rainwise IP-100,2013-11-07 23:09:00,
2013-11-07 18:14:00,49.4,41.0,29.91,WNW,292,15.9,23.0,75,0.00,,,0.14,Rainwise IP-100,2013-11-07 23:14:00,
2013-11-07 18:20:00,49.3,41.0,29.92,WNW,292,12.8,18.0,74,0.00,,,0.14,Rainwise IP-100,2013-11-07 23:20:00,
2013-11-07 18:25:00,49.2,41.0,29.93,WNW,292,9.1,13.0,74,0.00,,,0.14,Rainwise IP-100,2013-11-07 23:25:00,
2013-11-07 18:30:00,49.0,41.0,29.93,NW,315,9.1,11.0,74,0.00,,,0.14,Rainwise IP-100,2013-11-07 23:30:00,
2013-11-07 18:35:00,48.8,41.0,29.93,WNW,292,6.3,9.0,74,0.00,,,0.14,Rainwise IP-100,2013-11-07 23:35:00,
2013-11-07 18:40:00,48.6,41.0,29.93,WNW,292,7.9,12.0,74,0.00,,,0.14,Rainwise IP-100,2013-11-07 23:40:00,
2013-11-07 18:45:00,48.4,41.0,29.93,WNW,292,15.9,15.9,75,0.00,,,0.14,Rainwise IP-100,2013-11-07 23:45:00,
2013-11-07 18:50:00,48.2,41.0,29.93,WNW,292,13.5,20.0,75,0.00,,,0.14,Rainwise IP-100,2013-11-07 23:50:00,
2013-11-07 18:56:00,48.1,41.0,29.93,NW,315,13.1,20.0,75,0.00,,,0.14,Rainwise IP-100,2013-11-07 23:56:00,
2013-11-07 19:01:00,48.1,40.0,29.93,WNW,292,9.1,16.0,74,0.00,,,0.14,Rainwise IP-100,2013-11-08 00:01:00,
2013-11-07 19:06:00,48.0,40.0,29.93,WNW,292,21.0,21.0,73,0.00,,,0.14,Rainwise IP-100,2013-11-08 00:06:00,
2013-11-07 19:11:00,47.9,39.0,29.93,WNW,292,13.8,21.0,72,0.00,,,0.14,Rainwise IP-100,2013-11-08 00:11:00,
2013-11-07 19:16:00,47.8,39.0,29.93,WNW,292,17.5,23.0,72,0.00,,,0.14,Rainwise IP-100,2013-11-08 00:16:00,
2013-11-07 19:21:00,47.7,38.0,29.94,WNW,292,16.6,20.0,71,0.00,,,0.14,Rainwise IP-100,2013-11-08 00:21:00,
2013-11-07 19:26:00,47.5,38.0,29.94,West,270,18.7,19.0,71,0.00,,,0.14,Rainwise IP-100,2013-11-08 00:26:00,
2013-11-07 19:31:00,47.4,38.0,29.94,WNW,292,18.7,27.0,71,0.00,,,0.14,Rainwise IP-100,2013-11-08 00:31:00,
2013-11-07 19:37:00,47.3,38.0,29.94,WNW,292,19.1,25.0,71,0.00,,,0.14,Rainwise IP-100,2013-11-08 00:37:00,
2013-11-07 19:42:00,47.3,38.0,29.95,WNW,292,18.2,28.0,71,0.00,,,0.14,Rainwise IP-100,2013-11-08 00:42:00,
2013-11-07 19:47:00,47.2,38.0,29.95,WNW,292,11.7,21.0,71,0.00,,,0.14,Rainwise IP-100,2013-11-08 00:47:00,
2013-11-07 19:52:00,47.2,38.0,29.95,WNW,292,14.9,20.0,71,0.00,,,0.14,Rainwise IP-100,2013-11-08 00:52:00,
2013-11-07 19:57:00,47.0,38.0,29.95,WNW,292,17.3,22.0,72,0.00,,,0.14,Rainwise IP-100,2013-11-08 00:57:00,
2013-11-07 20:02:00,46.9,38.0,29.95,WNW,292,13.5,21.0,72,0.00,,,0.14,Rainwise IP-100,2013-11-08 01:02:00,
2013-11-07 20:07:00,46.8,38.0,29.95,WNW,292,15.6,18.0,72,0.00,,,0.14,Rainwise IP-100,2013-11-08 01:07:00,
2013-11-07 20:13:00,46.7,38.0,29.95,WNW,292,13.8,20.0,72,0.00,,,0.14,Rainwise IP-100,2013-11-08 01:13:00,
2013-11-07 20:18:00,46.6,38.0,29.96,WSW,247,10.0,21.0,72,0.00,,,0.14,Rainwise IP-100,2013-11-08 01:18:00,
2013-11-07 20:23:00,46.6,38.0,29.96,NW,315,13.5,21.0,71,0.00,,,0.14,Rainwise IP-100,2013-11-08 01:23:00,
2013-11-07 20:28:00,46.6,38.0,29.97,WNW,292,14.2,16.0,71,0.00,,,0.14,Rainwise IP-100,2013-11-08 01:28:00,
2013-11-07 20:33:00,46.5,38.0,29.96,WNW,292,14.9,17.0,71,0.00,,,0.14,Rainwise IP-100,2013-11-08 01:33:00,
2013-11-07 20:38:00,46.5,38.0,29.97,WNW,292,18.7,19.0,71,0.00,,,0.14,Rainwise IP-100,2013-11-08 01:38:00,
2013-11-07 20:43:00,46.5,37.0,29.97,NW,315,17.0,26.0,69,0.00,,,0.14,Rainwise IP-100,2013-11-08 01:43:00,
2013-11-07 20:48:00,46.5,37.0,29.97,NNW,337,13.8,22.0,68,0.00,,,0.14,Rainwise IP-100,2013-11-08 01:48:00,
2013-11-07 20:54:00,46.4,35.0,29.97,NW,315,11.7,21.0,66,0.00,,,0.14,Rainwise IP-100,2013-11-08 01:54:00,
2013-11-07 20:59:00,46.4,35.0,29.96,NNW,337,11.7,16.0,64,0.00,,,0.14,Rainwise IP-100,2013-11-08 01:59:00,
2013-11-07 21:04:00,46.4,35.0,29.97,NW,315,13.1,19.0,63,0.00,,,0.14,Rainwise IP-100,2013-11-08 02:04:00,
2013-11-07 21:09:00,46.4,33.0,29.97,NNW,337,13.1,18.0,62,0.00,,,0.14,Rainwise IP-100,2013-11-08 02:09:00,
2013-11-07 21:14:00,46.3,33.0,29.97,NW,315,12.8,17.0,61,0.00,,,0.14,Rainwise IP-100,2013-11-08 02:14:00,
2013-11-07 21:19:00,46.3,33.0,29.97,NNW,337,16.8,27.0,60,0.00,,,0.14,Rainwise IP-100,2013-11-08 02:19:00,
2013-11-07 21:24:00,46.3,32.0,29.97,NNW,337,16.3,26.0,59,0.00,,,0.14,Rainwise IP-100,2013-11-08 02:24:00,
2013-11-07 21:30:00,46.3,32.0,29.97,NW,315,14.2,27.0,57,0.00,,,0.14,Rainwise IP-100,2013-11-08 02:30:00,
2013-11-07 21:35:00,46.1,32.0,29.96,WNW,292,14.7,19.0,57,0.00,,,0.14,Rainwise IP-100,2013-11-08 02:35:00,
2013-11-07 21:40:00,45.9,32.0,29.98,NNW,337,13.3,16.0,57,0.00,,,0.14,Rainwise IP-100,2013-11-08 02:40:00,
2013-11-07 21:45:00,45.7,32.0,29.97,NNW,337,10.7,18.0,57,0.00,,,0.14,Rainwise IP-100,2013-11-08 02:45:00,
2013-11-07 21:50:00,45.6,32.0,29.98,NW,315,9.3,17.0,57,0.00,,,0.14,Rainwise IP-100,2013-11-08 02:50:00,
2013-11-07 21:55:00,45.6,32.0,29.98,WNW,292,11.4,11.4,57,0.00,,,0.14,Rainwise IP-100,2013-11-08 02:55:00,
2013-11-07 22:00:00,45.5,32.0,29.98,WNW,292,9.3,12.0,57,0.00,,,0.14,Rainwise IP-100,2013-11-08 03:00:00,
2013-11-07 22:05:00,45.5,32.0,29.97,West,270,6.8,15.0,57,0.00,,,0.14,Rainwise IP-100,2013-11-08 03:05:00,
2013-11-07 22:11:00,45.3,31.0,29.97,WNW,292,9.6,10.0,57,0.00,,,0.14,Rainwise IP-100,2013-11-08 03:11:00,
2013-11-07 22:16:00,45.1,31.0,29.97,WNW,292,5.8,10.0,57,0.00,,,0.14,Rainwise IP-100,2013-11-08 03:16:00,
2013-11-07 22:21:00,44.9,31.0,29.97,West,270,6.5,7.0,57,0.00,,,0.14,Rainwise IP-100,2013-11-08 03:21:00,
2013-11-07 22:26:00,44.6,31.0,29.98,West,270,7.2,8.0,58,0.00,,,0.14,Rainwise IP-100,2013-11-08 03:26:00,
2013-11-07 22:31:00,44.5,31.0,29.98,WNW,292,7.7,8.0,58,0.00,,,0.14,Rainwise IP-100,2013-11-08 03:31:00,
2013-11-07 22:36:00,44.3,31.0,29.98,WNW,292,7.5,9.0,58,0.00,,,0.14,Rainwise IP-100,2013-11-08 03:36:00,
2013-11-07 22:41:00,44.2,31.0,29.98,WNW,292,5.6,8.0,59,0.00,,,0.14,Rainwise IP-100,2013-11-08 03:41:00,
2013-11-07 22:47:00,44.1,31.0,29.98,WNW,292,7.2,8.0,59,0.00,,,0.14,Rainwise IP-100,2013-11-08 03:47:00,
2013-11-07 22:52:00,44.0,31.0,29.98,West,270,9.1,11.0,59,0.00,,,0.14,Rainwise IP-100,2013-11-08 03:52:00,
2013-11-07 22:57:00,44.0,31.0,29.98,West,270,8.2,10.0,58,0.00,,,0.14,Rainwise IP-100,2013-11-08 03:57:00,
2013-11-07 23:02:00,43.9,31.0,29.98,WNW,292,5.1,8.0,59,0.00,,,0.14,Rainwise IP-100,2013-11-08 04:02:00,
2013-11-07 23:07:00,43.9,31.0,29.98,WNW,292,4.0,7.0,59,0.00,,,0.14,Rainwise IP-100,2013-11-08 04:07:00,
2013-11-07 23:12:00,43.8,31.0,29.98,West,270,4.7,7.0,60,0.00,,,0.14,Rainwise IP-100,2013-11-08 04:12:00,
2013-11-07 23:17:00,43.5,32.0,29.98,West,270,3.7,6.0,61,0.00,,,0.14,Rainwise IP-100,2013-11-08 04:17:00,
2013-11-07 23:22:00,43.2,31.0,29.98,WSW,247,4.4,6.0,62,0.00,,,0.14,Rainwise IP-100,2013-11-08 04:22:00,
2013-11-07 23:28:00,43.0,31.0,29.98,WSW,247,6.3,7.0,62,0.00,,,0.14,Rainwise IP-100,2013-11-08 04:28:00,
2013-11-07 23:33:00,42.8,32.0,29.98,West,270,6.8,9.0,63,0.00,,,0.14,Rainwise IP-100,2013-11-08 04:33:00,
2013-11-07 23:38:00,42.7,32.0,29.97,WSW,247,7.9,9.0,64,0.00,,,0.14,Rainwise IP-100,2013-11-08 04:38:00,
2013-11-07 23:43:00,42.6,32.0,29.98,WSW,247,7.5,7.5,65,0.00,,,0.14,Rainwise IP-100,2013-11-08 04:43:00,
2013-11-07 23:48:00,42.4,32.0,29.98,WSW,247,4.9,8.0,66,0.00,,,0.14,Rainwise IP-100,2013-11-08 04:48:00,
2013-11-07 23:53:00,42.3,32.0,29.98,WSW,247,4.4,6.0,67,0.00,,,0.14,Rainwise IP-100,2013-11-08 04:53:00,
2013-11-07 23:54:00,42.3,32.0,29.98,WSW,247,3.7,6.0,67,0.00,,,0.14,Rainwise IP-100,2013-11-08 04:54:00,
2013-11-07 23:59:00,42.1,32.0,29.98,WSW,247,4.9,8.0,67,0.00,,,0.14,Rainwise IP-100,2013-11-08 04:59:00,